Time,TemperatureF,DewpointF,PressureIn,WindDirection,WindDirectionDegrees,WindSpeedMPH,WindSpeedGustMPH,Humidity,HourlyPrecipIn,Conditions,Clouds,dailyrainin,SoftwareType,DateUTC
2013-03-19 00:02:00,43.0,34.5,29.56,North,0,4.0,5.0,72,0.00,,,0.00,meteohub,2013-03-19 07:02:00,
2013-03-19 00:07:00,43.0,34.5,29.56,North,0,4.0,5.0,72,0.00,,,0.00,meteohub,2013-03-19 07:07:00,
2013-03-19 00:13:00,42.8,34.3,29.56,NE,45,1.0,5.0,72,0.00,,,0.00,meteohub,2013-03-19 07:13:00,
2013-03-19 00:18:00,42.8,34.7,29.56,North,0,4.0,6.0,73,0.00,,,0.00,meteohub,2013-03-19 07:18:00,
2013-03-19 00:23:00,42.6,34.5,29.56,North,0,3.0,8.0,73,0.00,,,0.00,meteohub,2013-03-19 07:23:00,
2013-03-19 00:28:00,42.4,34.3,29.56,East,90,2.0,8.0,73,0.00,,,0.00,meteohub,2013-03-19 07:28:00,
2013-03-19 00:33:00,42.3,34.2,29.56,NE,45,0.0,8.0,73,0.00,,,0.00,meteohub,2013-03-19 07:33:00,
2013-03-19 00:38:00,42.3,34.5,29.55,SE,135,2.0,3.0,74,0.00,,,0.00,meteohub,2013-03-19 07:38:00,
2013-03-19 00:44:00,42.4,35.1,29.55,North,0,3.0,3.0,75,0.00,,,0.00,meteohub,2013-03-19 07:44:00,
2013-03-19 00:49:00,42.6,34.9,29.55,NE,45,2.0,6.0,74,0.00,,,0.00,meteohub,2013-03-19 07:49:00,
2013-03-19 00:54:00,42.6,34.9,29.54,NW,315,6.0,6.0,74,0.00,,,0.00,meteohub,2013-03-19 07:54:00,
2013-03-19 00:59:00,42.8,35.1,29.54,East,90,4.0,6.0,74,0.00,,,0.00,meteohub,2013-03-19 07:59:00,
2013-03-19 01:05:00,42.8,35.1,29.54,East,90,2.0,6.0,74,0.00,,,0.00,meteohub,2013-03-19 08:05:00,
2013-03-19 01:10:00,42.8,35.1,29.54,SW,225,2.0,6.0,74,0.00,,,0.00,meteohub,2013-03-19 08:10:00,
2013-03-19 01:15:00,42.6,34.9,29.54,SE,135,2.0,5.0,74,0.00,,,0.00,meteohub,2013-03-19 08:15:00,
2013-03-19 01:20:00,42.6,35.2,29.54,East,90,2.0,5.0,75,0.00,,,0.00,meteohub,2013-03-19 08:20:00,
2013-03-19 01:25:00,42.8,35.1,29.53,SW,225,2.0,7.0,74,0.00,,,0.00,meteohub,2013-03-19 08:25:00,
2013-03-19 01:31:00,42.6,35.2,29.53,SE,135,2.0,7.0,75,0.00,,,0.00,meteohub,2013-03-19 08:31:00,
2013-03-19 01:36:00,42.8,35.4,29.53,West,270,4.0,4.0,75,0.00,,,0.00,meteohub,2013-03-19 08:36:00,
2013-03-19 01:41:00,42.8,35.4,29.53,North,0,4.0,7.0,75,0.00,,,0.00,meteohub,2013-03-19 08:41:00,
2013-03-19 01:46:00,43.0,35.6,29.53,NE,45,3.0,7.0,75,0.00,,,0.00,meteohub,2013-03-19 08:46:00,
2013-03-19 01:52:00,43.0,35.6,29.53,North,0,4.0,7.0,75,0.00,,,0.00,meteohub,2013-03-19 08:52:00,
2013-03-19 01:57:00,43.0,35.6,29.53,NE,45,4.0,7.0,75,0.00,,,0.00,meteohub,2013-03-19 08:57:00,
2013-03-19 02:02:00,43.0,35.6,29.53,NE,45,2.0,5.0,75,0.00,,,0.00,meteohub,2013-03-19 09:02:00,
2013-03-19 02:07:00,43.0,36.0,29.53,East,90,6.0,7.0,76,0.00,,,0.00,meteohub,2013-03-19 09:07:00,
2013-03-19 02:12:00,43.0,35.6,29.53,NE,45,3.0,7.0,75,0.00,,,0.00,meteohub,2013-03-19 09:12:00,
2013-03-19 02:17:00,42.8,35.8,29.53,North,0,2.0,6.0,76,0.00,,,0.00,meteohub,2013-03-19 09:17:00,
2013-03-19 02:22:00,42.8,35.8,29.53,North,0,2.0,6.0,76,0.00,,,0.00,meteohub,2013-03-19 09:22:00,
2013-03-19 02:27:00,42.6,35.6,29.53,SE,135,2.0,6.0,76,0.00,,,0.00,meteohub,2013-03-19 09:27:00,
2013-03-19 02:32:00,42.6,35.6,29.53,North,0,2.0,6.0,76,0.00,,,0.00,meteohub,2013-03-19 09:32:00,
2013-03-19 02:37:00,42.8,35.8,29.53,North,0,3.0,6.0,76,0.00,,,0.00,meteohub,2013-03-19 09:37:00,
2013-03-19 02:42:00,43.0,36.0,29.52,NE,45,4.0,6.0,76,0.00,,,0.00,meteohub,2013-03-19 09:42:00,
2013-03-19 02:48:00,43.0,36.0,29.52,NE,45,2.0,6.0,76,0.00,,,0.00,meteohub,2013-03-19 09:48:00,
2013-03-19 02:53:00,43.0,36.0,29.52,NE,45,2.0,6.0,76,0.00,,,0.00,meteohub,2013-03-19 09:53:00,
2013-03-19 02:58:00,42.8,35.8,29.52,North,0,3.0,8.0,76,0.00,,,0.00,meteohub,2013-03-19 09:58:00,
2013-03-19 03:03:00,42.8,35.8,29.51,NE,45,3.0,8.0,76,0.00,,,0.00,meteohub,2013-03-19 10:03:00,
2013-03-19 03:09:00,42.8,35.8,29.51,NE,45,3.0,8.0,76,0.00,,,0.00,meteohub,2013-03-19 10:09:00,
2013-03-19 03:14:00,42.6,35.6,29.51,South,180,3.0,5.0,76,0.00,,,0.00,meteohub,2013-03-19 10:14:00,
2013-03-19 03:19:00,42.6,35.6,29.52,SE,135,2.0,5.0,76,0.00,,,0.00,meteohub,2013-03-19 10:19:00,
2013-03-19 03:24:00,42.6,35.6,29.51,NE,45,2.0,5.0,76,0.00,,,0.00,meteohub,2013-03-19 10:24:00,
2013-03-19 03:29:00,42.3,35.6,29.51,East,90,2.0,4.0,77,0.00,,,0.00,meteohub,2013-03-19 10:29:00,
2013-03-19 03:35:00,42.1,35.4,29.51,East,90,1.0,4.0,77,0.00,,,0.00,meteohub,2013-03-19 10:35:00,
2013-03-19 03:40:00,41.9,35.6,29.51,NE,45,2.0,2.0,78,0.00,,,0.00,meteohub,2013-03-19 10:40:00,
2013-03-19 03:45:00,41.7,35.8,29.50,East,90,2.0,2.0,79,0.00,,,0.00,meteohub,2013-03-19 10:45:00,
2013-03-19 03:50:00,41.5,35.8,29.50,East,90,2.0,2.0,80,0.00,,,0.00,meteohub,2013-03-19 10:50:00,
2013-03-19 03:55:00,41.4,35.6,29.50,East,90,0.0,2.0,80,0.00,,,0.00,meteohub,2013-03-19 10:55:00,
2013-03-19 04:01:00,41.2,35.8,29.50,East,90,0.0,2.0,81,0.00,,,0.00,meteohub,2013-03-19 11:01:00,
2013-03-19 04:06:00,41.0,36.0,29.50,East,90,2.0,2.0,82,0.00,,,0.00,meteohub,2013-03-19 11:06:00,
2013-03-19 04:11:00,40.8,36.1,29.50,East,90,1.0,2.0,83,0.00,,,0.00,meteohub,2013-03-19 11:11:00,
2013-03-19 04:17:00,40.6,36.1,29.50,SW,225,2.0,2.0,84,0.00,,,0.00,meteohub,2013-03-19 11:17:00,
2013-03-19 04:22:00,40.3,35.6,29.49,SW,225,2.0,2.0,83,0.00,,,0.00,meteohub,2013-03-19 11:22:00,
2013-03-19 04:27:00,40.1,35.6,29.50,SW,225,2.0,2.0,84,0.00,,,0.00,meteohub,2013-03-19 11:27:00,
2013-03-19 04:32:00,39.9,35.2,29.50,SW,225,2.0,2.0,83,0.00,,,0.00,meteohub,2013-03-19 11:32:00,
2013-03-19 04:37:00,39.9,35.2,29.50,SW,225,2.0,3.0,83,0.00,,,0.00,meteohub,2013-03-19 11:37:00,
2013-03-19 04:42:00,39.9,35.2,29.50,SW,225,2.0,3.0,83,0.00,,,0.00,meteohub,2013-03-19 11:42:00,
2013-03-19 04:47:00,39.7,35.1,29.49,SW,225,0.0,3.0,83,0.00,,,0.00,meteohub,2013-03-19 11:47:00,
2013-03-19 04:52:00,39.7,35.2,29.50,SW,225,1.0,2.0,84,0.00,,,0.00,meteohub,2013-03-19 11:52:00,
2013-03-19 04:58:00,39.7,35.2,29.50,SW,225,0.0,2.0,84,0.00,,,0.00,meteohub,2013-03-19 11:58:00,
2013-03-19 05:03:00,39.7,35.2,29.49,SW,225,0.0,1.0,84,0.00,,,0.00,meteohub,2013-03-19 12:03:00,
2013-03-19 05:08:00,39.6,35.1,29.49,SW,225,0.0,1.0,84,0.00,,,0.00,meteohub,2013-03-19 12:08:00,
2013-03-19 05:14:00,39.6,35.1,29.49,SW,225,2.0,2.0,84,0.00,,,0.00,meteohub,2013-03-19 12:14:00,
2013-03-19 05:19:00,39.4,34.9,29.49,SW,225,0.0,2.0,84,0.00,,,0.00,meteohub,2013-03-19 12:19:00,
2013-03-19 05:24:00,39.2,35.1,29.49,SW,225,0.0,2.0,85,0.00,,,0.00,meteohub,2013-03-19 12:24:00,
2013-03-19 05:29:00,39.0,34.9,29.49,SW,225,0.0,2.0,85,0.00,,,0.00,meteohub,2013-03-19 12:29:00,
2013-03-19 05:34:00,38.8,34.7,29.49,SW,225,0.0,0.0,85,0.00,,,0.00,meteohub,2013-03-19 12:34:00,
2013-03-19 05:39:00,38.7,34.5,29.48,SW,225,0.0,0.0,85,0.00,,,0.00,meteohub,2013-03-19 12:39:00,
2013-03-19 05:45:00,38.5,34.7,29.49,SW,225,0.0,1.0,86,0.00,,,0.00,meteohub,2013-03-19 12:45:00,
2013-03-19 05:50:00,38.7,35.1,29.49,SW,225,2.0,2.0,87,0.00,,,0.00,meteohub,2013-03-19 12:50:00,
2013-03-19 05:55:00,38.7,35.1,29.49,SW,225,0.0,2.0,87,0.00,,,0.00,meteohub,2013-03-19 12:55:00,
2013-03-19 06:00:00,38.7,35.1,29.49,SW,225,0.0,2.0,87,0.00,,,0.00,meteohub,2013-03-19 13:00:00,
2013-03-19 06:06:00,38.7,35.1,29.49,SW,225,0.0,1.0,87,0.00,,,0.00,meteohub,2013-03-19 13:06:00,
2013-03-19 06:11:00,38.7,35.1,29.49,SW,225,0.0,0.0,87,0.00,,,0.00,meteohub,2013-03-19 13:11:00,
2013-03-19 06:17:00,38.7,35.1,29.49,SW,225,0.0,0.0,87,0.00,,,0.00,meteohub,2013-03-19 13:17:00,
2013-03-19 06:22:00,38.7,35.1,29.49,SW,225,0.0,0.0,87,0.00,,,0.00,meteohub,2013-03-19 13:22:00,
2013-03-19 06:27:00,38.8,35.6,29.49,SW,225,0.0,0.0,88,0.00,,,0.00,meteohub,2013-03-19 13:27:00,
2013-03-19 06:32:00,38.8,35.2,29.49,SW,225,0.0,0.0,87,0.00,,,0.00,meteohub,2013-03-19 13:32:00,
2013-03-19 06:38:00,38.7,35.1,29.49,SW,225,0.0,0.0,87,0.00,,,0.00,meteohub,2013-03-19 13:38:00,
2013-03-19 06:43:00,38.8,35.6,29.49,SW,225,2.0,0.0,88,0.00,,,0.00,meteohub,2013-03-19 13:43:00,
2013-03-19 06:48:00,38.8,36.0,29.49,SW,225,2.0,2.0,89,0.00,,,0.00,meteohub,2013-03-19 13:48:00,
2013-03-19 06:53:00,38.8,35.6,29.49,SW,225,1.0,2.0,88,0.00,,,0.00,meteohub,2013-03-19 13:53:00,
2013-03-19 06:58:00,38.8,36.0,29.49,SW,225,2.0,2.0,89,0.00,,,0.00,meteohub,2013-03-19 13:58:00,
2013-03-19 07:04:00,38.8,36.0,29.49,SW,225,3.0,3.0,89,0.00,,,0.00,meteohub,2013-03-19 14:04:00,
2013-03-19 07:09:00,38.7,36.0,29.49,SW,225,1.0,3.0,90,0.00,,,0.00,meteohub,2013-03-19 14:09:00,
2013-03-19 07:14:00,38.7,36.0,29.49,SW,225,2.0,3.0,90,0.00,,,0.00,meteohub,2013-03-19 14:14:00,
2013-03-19 07:19:00,38.7,36.0,29.49,SW,225,2.0,3.0,90,0.00,,,0.00,meteohub,2013-03-19 14:19:00,
2013-03-19 07:25:00,38.7,36.0,29.49,SW,225,2.0,3.0,90,0.00,,,0.00,meteohub,2013-03-19 14:25:00,
2013-03-19 07:30:00,38.7,36.0,29.49,SW,225,2.0,3.0,90,0.00,,,0.00,meteohub,2013-03-19 14:30:00,
2013-03-19 07:35:00,38.7,36.3,29.49,SW,225,2.0,3.0,91,0.00,,,0.00,meteohub,2013-03-19 14:35:00,
2013-03-19 07:40:00,38.7,36.3,29.50,SW,225,0.0,3.0,91,0.00,,,0.00,meteohub,2013-03-19 14:40:00,
2013-03-19 07:45:00,38.8,36.5,29.49,SW,225,0.0,3.0,91,0.00,,,0.00,meteohub,2013-03-19 14:45:00,
2013-03-19 07:50:00,39.0,36.3,29.49,SW,225,0.0,2.0,90,0.00,,,0.00,meteohub,2013-03-19 14:50:00,
2013-03-19 07:55:00,39.2,36.5,29.49,SW,225,3.0,3.0,90,0.00,,,0.00,meteohub,2013-03-19 14:55:00,
2013-03-19 08:01:00,39.2,36.5,29.49,SW,225,2.0,3.0,90,0.00,,,0.00,meteohub,2013-03-19 15:01:00,
2013-03-19 08:06:00,39.4,36.7,29.49,SW,225,0.0,3.0,90,0.00,,,0.00,meteohub,2013-03-19 15:06:00,
2013-03-19 08:11:00,39.6,36.9,29.49,SW,225,2.0,3.0,90,0.00,,,0.00,meteohub,2013-03-19 15:11:00,
2013-03-19 08:16:00,39.9,37.2,29.49,SW,225,0.0,2.0,90,0.00,,,0.00,meteohub,2013-03-19 15:16:00,
2013-03-19 08:22:00,40.1,37.4,29.48,SW,225,0.0,2.0,90,0.00,,,0.00,meteohub,2013-03-19 15:22:00,
2013-03-19 08:27:00,40.5,37.4,29.48,South,180,0.0,2.0,89,0.00,,,0.00,meteohub,2013-03-19 15:27:00,
2013-03-19 08:32:00,40.6,37.4,29.48,South,180,0.0,2.0,88,0.00,,,0.00,meteohub,2013-03-19 15:32:00,
2013-03-19 08:37:00,40.6,37.4,29.48,South,180,0.0,2.0,88,0.00,,,0.00,meteohub,2013-03-19 15:37:00,
2013-03-19 08:42:00,40.8,37.6,29.48,South,180,0.0,2.0,88,0.00,,,0.00,meteohub,2013-03-19 15:42:00,
2013-03-19 08:48:00,41.2,37.6,29.49,East,90,0.0,0.0,87,0.00,,,0.00,meteohub,2013-03-19 15:48:00,
2013-03-19 08:53:00,41.4,37.8,29.48,SE,135,2.0,0.0,87,0.00,,,0.00,meteohub,2013-03-19 15:53:00,
2013-03-19 08:58:00,41.4,37.8,29.48,South,180,2.0,2.0,87,0.00,,,0.00,meteohub,2013-03-19 15:58:00,
2013-03-19 09:04:00,41.2,37.4,29.49,SSW,203,1.0,2.0,86,0.00,,,0.00,meteohub,2013-03-19 16:04:00,
2013-03-19 09:09:00,41.4,37.8,29.48,SSW,203,0.0,2.0,87,0.00,,,0.00,meteohub,2013-03-19 16:09:00,
2013-03-19 09:14:00,41.7,38.1,29.48,NE,45,2.0,2.0,87,0.00,,,0.00,meteohub,2013-03-19 16:14:00,
2013-03-19 09:19:00,41.7,37.8,29.47,East,90,2.0,2.0,86,0.00,,,0.00,meteohub,2013-03-19 16:19:00,
2013-03-19 09:25:00,41.9,37.9,29.48,East,90,2.0,3.0,86,0.00,,,0.00,meteohub,2013-03-19 16:25:00,
2013-03-19 09:30:00,41.9,37.8,29.48,NE,45,2.0,3.0,85,0.00,,,0.00,meteohub,2013-03-19 16:30:00,
2013-03-19 09:35:00,42.1,38.1,29.48,East,90,2.0,3.0,86,0.00,,,0.00,meteohub,2013-03-19 16:35:00,
2013-03-19 09:40:00,42.1,37.9,29.47,East,90,2.0,3.0,85,0.00,,,0.00,meteohub,2013-03-19 16:40:00,
2013-03-19 09:45:00,42.1,37.9,29.47,SE,135,2.0,3.0,85,0.00,,,0.00,meteohub,2013-03-19 16:45:00,
2013-03-19 09:50:00,42.1,37.9,29.47,East,90,2.0,3.0,85,0.00,,,0.00,meteohub,2013-03-19 16:50:00,
2013-03-19 09:56:00,42.1,37.9,29.47,NE,45,3.0,3.0,85,0.00,,,0.00,meteohub,2013-03-19 16:56:00,
2013-03-19 10:01:00,42.1,37.9,29.47,NE,45,2.0,4.0,85,0.00,,,0.00,meteohub,2013-03-19 17:01:00,
2013-03-19 10:06:00,42.1,38.1,29.46,NE,45,3.0,4.0,86,0.00,,,0.00,meteohub,2013-03-19 17:06:00,
2013-03-19 10:11:00,42.1,38.1,29.46,NE,45,2.0,4.0,86,0.00,,,0.00,meteohub,2013-03-19 17:11:00,
2013-03-19 10:17:00,42.3,38.7,29.46,NE,45,0.0,3.0,87,0.00,,,0.00,meteohub,2013-03-19 17:17:00,
2013-03-19 10:22:00,42.4,38.5,29.47,NE,45,1.0,3.0,86,0.00,,,0.00,meteohub,2013-03-19 17:22:00,
2013-03-19 10:27:00,42.8,38.8,29.46,NE,45,0.0,2.0,86,0.00,,,0.00,meteohub,2013-03-19 17:27:00,
2013-03-19 10:32:00,43.3,39.4,29.46,NE,45,2.0,2.0,86,0.00,,,0.00,meteohub,2013-03-19 17:32:00,
2013-03-19 10:38:00,43.2,39.0,29.46,West,270,2.0,2.0,85,0.00,,,0.00,meteohub,2013-03-19 17:38:00,
2013-03-19 10:43:00,43.3,39.4,29.46,NE,45,2.0,4.0,86,0.01,,,0.01,meteohub,2013-03-19 17:43:00,
2013-03-19 10:49:00,43.9,39.9,29.46,NE,45,2.0,4.0,86,0.01,,,0.01,meteohub,2013-03-19 17:49:00,
2013-03-19 10:54:00,44.2,40.3,29.46,NE,45,2.0,3.0,86,0.01,,,0.01,meteohub,2013-03-19 17:54:00,
2013-03-19 10:59:00,45.0,40.6,29.46,NE,45,2.0,2.0,85,0.01,,,0.01,meteohub,2013-03-19 17:59:00,
2013-03-19 11:04:00,45.0,40.1,29.46,NE,45,3.0,3.0,83,0.01,,,0.01,meteohub,2013-03-19 18:04:00,
2013-03-19 11:09:00,44.8,40.3,29.45,SE,135,2.0,3.0,84,0.01,,,0.01,meteohub,2013-03-19 18:09:00,
2013-03-19 11:14:00,45.0,40.5,29.45,NE,45,2.0,3.0,84,0.01,,,0.01,meteohub,2013-03-19 18:14:00,
2013-03-19 11:20:00,45.0,40.6,29.45,East,90,3.0,3.0,85,0.01,,,0.01,meteohub,2013-03-19 18:20:00,
2013-03-19 11:25:00,45.1,40.6,29.44,NE,45,3.0,4.0,84,0.01,,,0.01,meteohub,2013-03-19 18:25:00,
2013-03-19 11:30:00,45.5,41.0,29.44,NE,45,3.0,4.0,84,0.01,,,0.01,meteohub,2013-03-19 18:30:00,
2013-03-19 11:35:00,46.0,41.2,29.44,NE,45,4.0,4.0,83,0.01,,,0.01,meteohub,2013-03-19 18:35:00,
2013-03-19 11:40:00,46.6,41.0,29.44,NE,45,2.0,4.0,81,0.00,,,0.01,meteohub,2013-03-19 18:40:00,
2013-03-19 11:46:00,47.3,41.7,29.44,NE,45,2.0,4.0,81,0.00,,,0.01,meteohub,2013-03-19 18:46:00,
2013-03-19 11:51:00,47.1,41.4,29.44,NE,45,2.0,4.0,80,0.00,,,0.01,meteohub,2013-03-19 18:51:00,
2013-03-19 11:56:00,46.4,40.6,29.44,East,90,2.0,4.0,80,0.00,,,0.01,meteohub,2013-03-19 18:56:00,
2013-03-19 12:02:00,46.2,40.5,29.44,SE,135,1.0,4.0,80,0.00,,,0.01,meteohub,2013-03-19 19:02:00,
2013-03-19 12:07:00,46.6,41.0,29.44,NE,45,3.0,4.0,81,0.00,,,0.01,meteohub,2013-03-19 19:07:00,
2013-03-19 12:12:00,46.8,41.2,29.43,East,90,2.0,4.0,81,0.00,,,0.01,meteohub,2013-03-19 19:12:00,
2013-03-19 12:17:00,46.8,41.2,29.44,East,90,3.0,3.0,81,0.00,,,0.01,meteohub,2013-03-19 19:17:00,
2013-03-19 12:22:00,46.8,41.0,29.43,East,90,4.0,4.0,80,0.00,,,0.01,meteohub,2013-03-19 19:22:00,
2013-03-19 12:27:00,46.6,40.8,29.43,NE,45,2.0,4.0,80,0.00,,,0.01,meteohub,2013-03-19 19:27:00,
2013-03-19 12:32:00,46.9,41.2,29.43,NE,45,1.0,4.0,80,0.00,,,0.01,meteohub,2013-03-19 19:32:00,
2013-03-19 12:37:00,47.8,41.4,29.43,North,0,2.0,4.0,78,0.00,,,0.01,meteohub,2013-03-19 19:37:00,
2013-03-19 12:42:00,47.5,41.0,29.42,NE,45,2.0,4.0,78,0.00,,,0.01,meteohub,2013-03-19 19:42:00,
2013-03-19 12:47:00,47.3,41.2,29.42,North,0,2.0,4.0,79,0.00,,,0.01,meteohub,2013-03-19 19:47:00,
2013-03-19 12:52:00,47.3,41.2,29.42,NE,45,4.0,4.0,79,0.00,,,0.01,meteohub,2013-03-19 19:52:00,
2013-03-19 12:57:00,47.1,40.6,29.42,NE,45,2.0,4.0,78,0.00,,,0.01,meteohub,2013-03-19 19:57:00,
2013-03-19 13:02:00,47.1,41.0,29.42,NE,45,2.0,4.0,79,0.00,,,0.01,meteohub,2013-03-19 20:02:00,
2013-03-19 13:07:00,46.9,41.2,29.42,NE,45,4.0,4.0,80,0.00,,,0.01,meteohub,2013-03-19 20:07:00,
2013-03-19 13:12:00,46.6,40.8,29.42,NE,45,3.0,4.0,80,0.00,,,0.01,meteohub,2013-03-19 20:12:00,
2013-03-19 13:18:00,46.4,40.8,29.41,NE,45,2.0,4.0,81,0.00,,,0.01,meteohub,2013-03-19 20:18:00,
2013-03-19 13:23:00,46.6,41.0,29.41,NE,45,2.0,4.0,81,0.00,,,0.01,meteohub,2013-03-19 20:23:00,
2013-03-19 13:28:00,46.8,41.0,29.41,East,90,2.0,4.0,80,0.00,,,0.01,meteohub,2013-03-19 20:28:00,
2013-03-19 13:33:00,46.8,41.0,29.41,SE,135,3.0,4.0,80,0.00,,,0.01,meteohub,2013-03-19 20:33:00,
2013-03-19 13:38:00,46.8,41.0,29.42,NE,45,2.0,3.0,80,0.00,,,0.01,meteohub,2013-03-19 20:38:00,
2013-03-19 13:44:00,46.4,40.6,29.41,North,0,1.0,4.0,80,0.00,,,0.01,meteohub,2013-03-19 20:44:00,
2013-03-19 13:49:00,46.6,40.8,29.40,North,0,2.0,4.0,80,0.00,,,0.01,meteohub,2013-03-19 20:49:00,
2013-03-19 13:54:00,46.8,41.2,29.39,NE,45,2.0,4.0,81,0.00,,,0.01,meteohub,2013-03-19 20:54:00,
2013-03-19 13:59:00,46.6,40.8,29.39,North,0,4.0,4.0,80,0.00,,,0.01,meteohub,2013-03-19 20:59:00,
2013-03-19 14:04:00,46.9,41.4,29.38,NE,45,2.0,4.0,81,0.00,,,0.01,meteohub,2013-03-19 21:04:00,
2013-03-19 14:09:00,47.7,42.1,29.38,East,90,1.0,4.0,81,0.00,,,0.01,meteohub,2013-03-19 21:09:00,
2013-03-19 14:14:00,48.9,42.4,29.38,NE,45,2.0,4.0,78,0.00,,,0.01,meteohub,2013-03-19 21:14:00,
2013-03-19 14:19:00,50.0,42.8,29.37,East,90,2.0,4.0,76,0.00,,,0.01,meteohub,2013-03-19 21:19:00,
2013-03-19 14:25:00,49.8,41.9,29.37,East,90,1.0,2.0,74,0.00,,,0.01,meteohub,2013-03-19 21:25:00,
2013-03-19 14:30:00,49.6,41.4,29.37,NE,45,2.0,3.0,73,0.00,,,0.01,meteohub,2013-03-19 21:30:00,
2013-03-19 14:35:00,49.5,41.5,29.36,West,270,1.0,3.0,74,0.00,,,0.01,meteohub,2013-03-19 21:35:00,
2013-03-19 14:40:00,49.5,41.2,29.36,NE,45,2.0,3.0,73,0.00,,,0.01,meteohub,2013-03-19 21:40:00,
2013-03-19 14:45:00,49.6,41.4,29.36,East,90,3.0,3.0,73,0.00,,,0.01,meteohub,2013-03-19 21:45:00,
2013-03-19 14:51:00,49.5,41.5,29.36,South,180,2.0,3.0,74,0.00,,,0.01,meteohub,2013-03-19 21:51:00,
2013-03-19 14:56:00,49.8,41.9,29.35,East,90,2.0,3.0,74,0.00,,,0.01,meteohub,2013-03-19 21:56:00,
2013-03-19 15:01:00,49.6,41.7,29.35,East,90,2.0,3.0,74,0.00,,,0.01,meteohub,2013-03-19 22:01:00,
2013-03-19 15:06:00,49.5,41.9,29.35,SE,135,1.0,3.0,75,0.00,,,0.01,meteohub,2013-03-19 22:06:00,
2013-03-19 15:12:00,49.1,41.2,29.35,East,90,3.0,3.0,74,0.00,,,0.01,meteohub,2013-03-19 22:12:00,
2013-03-19 15:17:00,48.7,41.2,29.34,East,90,2.0,3.0,75,0.00,,,0.01,meteohub,2013-03-19 22:17:00,
2013-03-19 15:22:00,48.6,41.0,29.34,East,90,2.0,3.0,75,0.00,,,0.01,meteohub,2013-03-19 22:22:00,
2013-03-19 15:27:00,48.7,41.5,29.34,NE,45,2.0,3.0,76,0.00,,,0.01,meteohub,2013-03-19 22:27:00,
2013-03-19 15:32:00,48.6,41.7,29.35,SE,135,1.0,2.0,77,0.00,,,0.01,meteohub,2013-03-19 22:32:00,
2013-03-19 15:37:00,48.4,41.9,29.34,East,90,0.0,2.0,78,0.00,,,0.01,meteohub,2013-03-19 22:37:00,
2013-03-19 15:42:00,48.2,42.3,29.34,East,90,0.0,2.0,80,0.00,,,0.01,meteohub,2013-03-19 22:42:00,
2013-03-19 15:47:00,48.0,42.8,29.34,East,90,0.0,2.0,82,0.00,,,0.01,meteohub,2013-03-19 22:47:00,
2013-03-19 15:53:00,47.5,42.6,29.34,East,90,0.0,2.0,83,0.00,,,0.01,meteohub,2013-03-19 22:53:00,
2013-03-19 15:58:00,47.3,42.8,29.34,East,90,0.0,1.0,84,0.01,,,0.02,meteohub,2013-03-19 22:58:00,
2013-03-19 16:03:00,47.1,42.8,29.33,East,90,1.0,1.0,85,0.01,,,0.02,meteohub,2013-03-19 23:03:00,
2013-03-19 16:08:00,47.1,43.5,29.33,East,90,1.0,2.0,87,0.02,,,0.04,meteohub,2013-03-19 23:08:00,
2013-03-19 16:14:00,46.9,43.5,29.34,SE,135,1.0,2.0,88,0.02,,,0.04,meteohub,2013-03-19 23:14:00,
2013-03-19 16:19:00,46.8,43.3,29.34,SE,135,0.0,2.0,88,0.02,,,0.04,meteohub,2013-03-19 23:19:00,
2013-03-19 16:24:00,46.6,43.2,29.33,NE,45,2.0,2.0,88,0.04,,,0.05,meteohub,2013-03-19 23:24:00,
2013-03-19 16:29:00,46.6,43.2,29.34,NE,45,0.0,2.0,88,0.04,,,0.05,meteohub,2013-03-19 23:29:00,
2013-03-19 16:34:00,46.4,43.0,29.33,NE,45,0.0,2.0,88,0.04,,,0.05,meteohub,2013-03-19 23:34:00,
2013-03-19 16:39:00,46.4,43.0,29.33,NE,45,1.0,2.0,88,0.04,,,0.05,meteohub,2013-03-19 23:39:00,
2013-03-19 16:45:00,46.2,43.2,29.32,NE,45,0.0,1.0,89,0.05,,,0.06,meteohub,2013-03-19 23:45:00,
2013-03-19 16:50:00,46.2,43.5,29.31,NE,45,2.0,2.0,90,0.05,,,0.06,meteohub,2013-03-19 23:50:00,
2013-03-19 16:55:00,46.0,43.9,29.31,NE,45,2.0,2.0,92,0.05,,,0.07,meteohub,2013-03-19 23:55:00,
2013-03-19 17:00:00,45.9,43.9,29.31,NE,45,2.0,2.0,93,0.05,,,0.07,meteohub,2013-03-20 00:00:00,
2013-03-19 17:05:00,45.5,43.9,29.31,NE,45,2.0,2.0,94,0.05,,,0.01,meteohub,2013-03-20 00:05:00,
2013-03-19 17:11:00,45.3,44.1,29.30,NE,45,2.0,4.0,95,0.05,,,0.01,meteohub,2013-03-20 00:11:00,
2013-03-19 17:16:00,45.3,44.1,29.30,NE,45,3.0,4.0,95,0.05,,,0.01,meteohub,2013-03-20 00:16:00,
2013-03-19 17:21:00,45.1,44.1,29.30,East,90,1.0,4.0,96,0.04,,,0.01,meteohub,2013-03-20 00:21:00,
2013-03-19 17:27:00,45.1,44.1,29.29,East,90,2.0,3.0,96,0.04,,,0.01,meteohub,2013-03-20 00:27:00,
2013-03-19 17:32:00,45.1,44.1,29.29,East,90,3.0,4.0,96,0.04,,,0.01,meteohub,2013-03-20 00:32:00,
2013-03-19 17:37:00,45.1,44.1,29.28,North,0,3.0,4.0,96,0.02,,,0.01,meteohub,2013-03-20 00:37:00,
2013-03-19 17:42:00,45.0,43.9,29.29,North,0,3.0,4.0,96,0.02,,,0.01,meteohub,2013-03-20 00:42:00,
2013-03-19 17:47:00,45.0,43.9,29.28,NE,45,3.0,4.0,96,0.04,,,0.02,meteohub,2013-03-20 00:47:00,
2013-03-19 17:52:00,44.8,43.7,29.28,NE,45,1.0,4.0,96,0.04,,,0.02,meteohub,2013-03-20 00:52:00,
2013-03-19 17:57:00,44.8,43.7,29.28,NE,45,0.0,3.0,96,0.02,,,0.02,meteohub,2013-03-20 00:57:00,
2013-03-19 18:02:00,44.6,43.5,29.28,West,270,1.0,3.0,96,0.04,,,0.04,meteohub,2013-03-20 01:02:00,
2013-03-19 18:07:00,44.6,43.9,29.27,North,0,3.0,3.0,97,0.02,,,0.04,meteohub,2013-03-20 01:07:00,
2013-03-19 18:12:00,44.4,43.7,29.26,North,0,2.0,3.0,97,0.04,,,0.05,meteohub,2013-03-20 01:12:00,
2013-03-19 18:18:00,44.4,43.7,29.26,SW,225,2.0,3.0,97,0.06,,,0.07,meteohub,2013-03-20 01:18:00,
2013-03-19 18:23:00,44.4,43.7,29.26,NW,315,0.0,3.0,97,0.06,,,0.07,meteohub,2013-03-20 01:23:00,
2013-03-19 18:28:00,44.4,43.7,29.26,NE,45,2.0,2.0,97,0.06,,,0.07,meteohub,2013-03-20 01:28:00,
2013-03-19 18:33:00,44.4,43.7,29.26,East,90,1.0,2.0,97,0.07,,,0.08,meteohub,2013-03-20 01:33:00,
2013-03-19 18:38:00,44.2,43.5,29.25,NE,45,0.0,2.0,97,0.08,,,0.09,meteohub,2013-03-20 01:38:00,
2013-03-19 18:43:00,44.2,43.5,29.25,North,0,0.0,2.0,97,0.09,,,0.11,meteohub,2013-03-20 01:43:00,
2013-03-19 18:48:00,44.1,43.3,29.24,NW,315,0.0,2.0,97,0.08,,,0.11,meteohub,2013-03-20 01:48:00,
2013-03-19 18:54:00,44.1,43.3,29.24,SW,225,2.0,2.0,97,0.08,,,0.11,meteohub,2013-03-20 01:54:00,
2013-03-19 18:59:00,44.1,43.5,29.23,North,0,0.0,3.0,98,0.08,,,0.11,meteohub,2013-03-20 01:59:00,
2013-03-19 19:04:00,44.1,43.5,29.23,SW,225,0.0,3.0,98,0.07,,,0.11,meteohub,2013-03-20 02:04:00,
2013-03-19 19:09:00,44.1,43.5,29.23,SW,225,0.0,3.0,98,0.08,,,0.12,meteohub,2013-03-20 02:09:00,
2013-03-19 19:15:00,43.9,43.3,29.22,SW,225,0.0,2.0,98,0.06,,,0.12,meteohub,2013-03-20 02:15:00,
2013-03-19 19:20:00,43.9,43.3,29.21,SW,225,0.0,1.0,98,0.05,,,0.13,meteohub,2013-03-20 02:20:00,
2013-03-19 19:25:00,43.9,43.7,29.21,SW,225,1.0,2.0,99,0.05,,,0.13,meteohub,2013-03-20 02:25:00,
2013-03-19 19:30:00,43.9,43.7,29.22,SW,225,3.0,3.0,99,0.04,,,0.13,meteohub,2013-03-20 02:30:00,
2013-03-19 19:35:00,43.9,43.7,29.21,SW,225,0.0,3.0,99,0.04,,,0.13,meteohub,2013-03-20 02:35:00,
2013-03-19 19:41:00,43.9,43.7,29.21,SW,225,2.0,3.0,99,0.02,,,0.13,meteohub,2013-03-20 02:41:00,
2013-03-19 19:46:00,43.7,43.5,29.20,SW,225,0.0,3.0,99,0.02,,,0.13,meteohub,2013-03-20 02:46:00,
2013-03-19 19:51:00,43.7,43.5,29.20,SW,225,1.0,2.0,99,0.02,,,0.13,meteohub,2013-03-20 02:51:00,
2013-03-19 19:57:00,43.5,43.3,29.19,SW,225,2.0,2.0,99,0.02,,,0.13,meteohub,2013-03-20 02:57:00,
2013-03-19 20:02:00,43.7,43.5,29.19,SW,225,1.0,2.0,99,0.04,,,0.14,meteohub,2013-03-20 03:02:00,
2013-03-19 20:07:00,43.7,43.5,29.20,West,270,3.0,3.0,99,0.02,,,0.14,meteohub,2013-03-20 03:07:00,
2013-03-19 20:12:00,43.7,43.5,29.19,West,270,2.0,3.0,99,0.04,,,0.15,meteohub,2013-03-20 03:12:00,
2013-03-19 20:17:00,43.9,43.7,29.19,SW,225,2.0,3.0,99,0.04,,,0.15,meteohub,2013-03-20 03:17:00,
2013-03-19 20:22:00,43.9,43.7,29.19,SW,225,3.0,3.0,99,0.04,,,0.17,meteohub,2013-03-20 03:22:00,
2013-03-19 20:27:00,43.9,43.7,29.18,SW,225,0.0,3.0,99,0.05,,,0.18,meteohub,2013-03-20 03:27:00,
2013-03-19 20:33:00,44.1,43.9,29.18,South,180,0.0,3.0,99,0.05,,,0.18,meteohub,2013-03-20 03:33:00,
2013-03-19 20:38:00,44.2,44.1,29.19,SW,225,2.0,3.0,99,0.05,,,0.18,meteohub,2013-03-20 03:38:00,
2013-03-19 20:43:00,44.4,44.2,29.18,SW,225,1.0,2.0,99,0.06,,,0.19,meteohub,2013-03-20 03:43:00,
2013-03-19 20:48:00,44.4,44.2,29.18,SW,225,0.0,2.0,99,0.07,,,0.20,meteohub,2013-03-20 03:48:00,
2013-03-19 20:54:00,44.6,44.4,29.19,SW,225,3.0,3.0,99,0.07,,,0.20,meteohub,2013-03-20 03:54:00,
2013-03-19 20:59:00,44.4,44.2,29.19,West,270,3.0,4.0,99,0.07,,,0.20,meteohub,2013-03-20 03:59:00,
2013-03-19 21:00:00,44.4,44.2,29.18,West,270,2.0,4.0,99,0.07,,,0.20,meteohub,2013-03-20 04:00:00,
2013-03-19 21:01:00,44.4,44.2,29.18,West,270,1.0,4.0,99,0.11,,,0.25,meteohub,2013-03-20 04:01:00,
2013-03-19 21:02:00,44.4,44.2,29.18,West,270,1.0,4.0,99,0.11,,,0.25,meteohub,2013-03-20 04:02:00,
2013-03-19 21:07:00,44.4,44.2,29.18,West,270,1.0,4.0,99,0.13,,,0.27,meteohub,2013-03-20 04:07:00,
2013-03-19 21:12:00,44.4,44.2,29.18,West,270,0.0,4.0,99,0.12,,,0.27,meteohub,2013-03-20 04:12:00,
2013-03-19 21:17:00,44.6,44.4,29.17,NE,45,2.0,2.0,99,0.14,,,0.30,meteohub,2013-03-20 04:17:00,
2013-03-19 21:22:00,44.6,44.4,29.17,NE,45,1.0,2.0,99,0.13,,,0.30,meteohub,2013-03-20 04:22:00,
2013-03-19 21:27:00,44.6,44.4,29.18,NE,45,0.0,2.0,99,0.13,,,0.31,meteohub,2013-03-20 04:27:00,
2013-03-19 21:32:00,44.6,44.4,29.17,East,90,2.0,2.0,99,0.14,,,0.32,meteohub,2013-03-20 04:32:00,
2013-03-19 21:37:00,44.6,44.4,29.16,NE,45,1.0,2.0,99,0.14,,,0.32,meteohub,2013-03-20 04:37:00,
2013-03-19 21:42:00,44.6,44.4,29.16,NE,45,0.0,2.0,99,0.13,,,0.32,meteohub,2013-03-20 04:42:00,
2013-03-19 21:48:00,44.6,44.4,29.16,NE,45,0.0,2.0,99,0.12,,,0.32,meteohub,2013-03-20 04:48:00,
2013-03-19 21:53:00,44.8,44.6,29.16,NE,45,1.0,2.0,99,0.12,,,0.32,meteohub,2013-03-20 04:53:00,
2013-03-19 21:58:00,45.0,44.8,29.16,West,270,2.0,2.0,99,0.09,,,0.32,meteohub,2013-03-20 04:58:00,
2013-03-19 22:03:00,45.1,45.0,29.15,West,270,0.0,2.0,99,0.07,,,0.32,meteohub,2013-03-20 05:03:00,
2013-03-19 22:08:00,45.1,45.0,29.15,West,270,0.0,2.0,99,0.05,,,0.32,meteohub,2013-03-20 05:08:00,
2013-03-19 22:14:00,45.3,45.1,29.15,West,270,2.0,2.0,99,0.05,,,0.32,meteohub,2013-03-20 05:14:00,
2013-03-19 22:19:00,45.5,45.3,29.14,SW,225,1.0,2.0,99,0.02,,,0.32,meteohub,2013-03-20 05:19:00,
2013-03-19 22:24:00,45.7,45.5,29.15,West,270,2.0,2.0,99,0.04,,,0.33,meteohub,2013-03-20 05:24:00,
2013-03-19 22:30:00,45.9,45.7,29.15,West,270,2.0,3.0,99,0.01,,,0.33,meteohub,2013-03-20 05:30:00,
2013-03-19 22:35:00,46.0,45.9,29.15,SW,225,2.0,4.0,99,0.02,,,0.34,meteohub,2013-03-20 05:35:00,
2013-03-19 22:40:00,46.2,46.0,29.15,South,180,1.0,4.0,99,0.04,,,0.35,meteohub,2013-03-20 05:40:00,
2013-03-19 22:45:00,46.4,46.2,29.15,West,270,1.0,3.0,99,0.05,,,0.37,meteohub,2013-03-20 05:45:00,
2013-03-19 22:50:00,46.6,46.4,29.15,South,180,1.0,2.0,99,0.05,,,0.37,meteohub,2013-03-20 05:50:00,
2013-03-19 22:56:00,46.6,46.4,29.14,South,180,1.0,4.0,99,0.07,,,0.39,meteohub,2013-03-20 05:56:00,
2013-03-19 23:01:00,46.8,46.6,29.14,SE,135,0.0,4.0,99,0.07,,,0.39,meteohub,2013-03-20 06:01:00,
2013-03-19 23:06:00,46.8,46.6,29.14,East,90,1.0,4.0,99,0.07,,,0.39,meteohub,2013-03-20 06:06:00,
2013-03-19 23:11:00,46.8,46.6,29.14,East,90,0.0,2.0,99,0.07,,,0.39,meteohub,2013-03-20 06:11:00,
2013-03-19 23:16:00,46.9,46.8,29.14,NE,45,1.0,2.0,99,0.07,,,0.39,meteohub,2013-03-20 06:16:00,
2013-03-19 23:22:00,46.9,46.8,29.14,SE,135,0.0,2.0,99,0.07,,,0.40,meteohub,2013-03-20 06:22:00,
2013-03-19 23:27:00,46.9,46.8,29.13,SW,225,1.0,2.0,99,0.08,,,0.41,meteohub,2013-03-20 06:27:00,
2013-03-19 23:32:00,46.9,46.8,29.13,West,270,2.0,2.0,99,0.08,,,0.41,meteohub,2013-03-20 06:32:00,
2013-03-19 23:37:00,46.9,46.8,29.13,West,270,2.0,3.0,99,0.08,,,0.43,meteohub,2013-03-20 06:37:00,
2013-03-19 23:42:00,47.1,46.9,29.13,SW,225,2.0,3.0,99,0.08,,,0.44,meteohub,2013-03-20 06:42:00,
2013-03-19 23:47:00,47.3,47.1,29.13,SW,225,3.0,3.0,99,0.07,,,0.44,meteohub,2013-03-20 06:47:00,
2013-03-19 23:52:00,47.5,47.3,29.13,West,270,0.0,3.0,99,0.06,,,0.44,meteohub,2013-03-20 06:52:00,
2013-03-19 23:57:00,47.7,47.5,29.13,East,90,0.0,3.0,99,0.06,,,0.45,meteohub,2013-03-20 06:57:00,